ARIANE 2 DEB, 28570

Orbit data source: Space-Track

ARIANE 2 DEB, 28570 is space debris in HEO originally from a launch on Fri, 27 Jan 1989 UTC launched from the French Guiana (FRGUI). Debris objects in space refer to the collection of defunct objects orbiting the Earth. Examples of debris include non-operational satellites, rocket bodies, and fragments generated from explosions, collisions, or faulty payload assembly.

Loading next visibility...
ARIANE 2 DEB details
Identifier
28570, 1989-006AM
Orbit
HEO
Last TLE update1 day ago
Origin
Flag of FRArianespace (FR)
ManufacturerEADS/LV
MissionSpacecraft
Bus & MotorUnknown
MassUnknown
Launch date (UTC)
1989-01-27 (36 years ago)
Launch vehicleUnknown
Launch site
French Guiana (FRGUI)
Object type
Payload
Rocket body
Debris
Shape & HBRUnknown
Radar Cross SectionMedium (>0.1 m² and <1 m²)

Expand to show TLE details & history

TLE from 1 day ago
0 ARIANE 2 DEB
1 28570U 89006AM  24360.62355168  .00002590  00000-0  24669-1 0  9990
2 28570   7.7161 350.6537 7150669 273.1799 322.6942  2.29491986176942
Epoch: 2024-12-25T14:57Z
Definitive object data (Epoch: 2024-12-25T14:57:54.865Z)
Latitude4.19494°
Longitude178.85973°
Altitude14,096.107 km
Speed4.745 km/s
True Right ascension09h 11m 48s
True Declination4° 11' 10"
Sunlit
Object was in daylight at TLE epoch
Visualization TLE readout
Latitude7.5814°
Longitude132.3362°
Altitude34,501.904 km
Speed1.756 km/s
Apparent Right ascension06h 07m 50s
Apparent Declination1° 39' 41"
Sunlit
Object is in daylight
Visualization observer readout
Local Sidereal Time18:25:25
Azimuth6.604° NNE
Elevation-48.228°
Doppler factor1
Orbital elements
Apogee altitude35,270.16 km
Perigee altitude541.114 km
Semi-major axis24,283.774 km
Eccentricity0.7150669
Inclination7.7161°
RAAN350.6537°
Arg. of periapsis273.1799°
True anomaly234.03944°
Mean anomaly322.6942°
Eccentric anomaly282.73114°
Mean motion0.57355 °/min
BSTAR0.024669
Orbital period627.67 mins
Loading maneuver chart data...
Loading historical data...
Loading historical data...
Loading historical data...
Loading historical data...
Loading historical data...
Loading historical data...
Loading historical data...

ARIANE 2 DEB Visibility forecast

Observer location: undefined°, undefined

Span
Click to sort rows by Start time (UTC) header in descending order
Start Az.
Max El. time (UTC)
Max El. Az.
Max El.
End time (UTC)
End Az.
574 mins2024-12-26 23:45:49.544Z189.541° SSW2024-12-27 06:39:49.544Z159.881° S37.174°2024-12-27 09:19:49.544Z132.433° SE
|